OE3BIA-11 Weather Reports


time (UTC)temp
F
wind
direction
speed
knots
gust
knots
rain 1hr
in
rain 24hr
in
rain mn
in
humidity
%
barometer
mb
20260507061119 57 270 3.5 7.0 0.00 0.00 0.00 5 1236.4
20260507060617 56 270 5.2 8.7 0.00 0.00 0.00 5 1236.6
20260507060114 56 247 6.1 14.8 0.00 0.00 0.00 6 1237.7
20260507055611 56 225 4.3 8.7 0.00 0.00 0.00 5 1236.3
20260507055108 56 270 5.2 8.7 0.00 0.00 0.00 5 1236.1
20260507054606 56 270 4.3 8.7 0.00 0.00 0.00 6 1238.1
20260507054103 57 270 3.5 7.8 0.00 0.00 0.00 5 1235.9
20260507053600 57 135 0.0 0.0 0.00 0.00 0.00 5 1235.6
20260507053057 57 135 2.6 2.6 0.00 0.00 0.00 5 1236.3
20260507052554 57 135 0.0 0.0 0.00 0.00 0.00 6 1236.6
20260507052052 56 135 2.6 0.0 0.00 0.00 0.00 5 1235.9
20260507051549 56 135 0.0 0.0 0.00 0.00 0.00 6 1236.9
20260507051046 56 135 2.6 3.5 0.00 0.00 0.00 6 1237.7
20260507050543 56 135 2.6 3.5 0.00 0.00 0.00 6 1240.5
20260507050041 56 135 2.6 2.6 0.00 0.00 0.00 6 1237.9
20260507045538 55 135 2.6 3.5 0.00 0.00 0.00 6 1237.8
20260507044024 55 135 0.0 0.0 0.00 0.00 0.00 6 1238.7
20260507043522 55 135 0.0 0.0 0.00 0.00 0.00 6 1239.1
20260507043019 55 135 0.0 0.0 0.00 0.00 0.00 6 1240.1
20260507042516 55 135 0.0 0.0 0.00 0.00 0.00 6 1240.3
20260507042013 55 135 3.5 0.0 0.00 0.00 0.00 6 1239.4
20260507041510 55 135 0.0 0.0 0.00 0.00 0.00 6 1237.5
20260507041008 55 135 0.0 0.0 0.00 0.00 0.00 6 1238.0
20260507040507 55 135 2.6 3.5 0.00 0.00 0.00 6 1237.5
20260507040002 55 135 3.5 7.0 0.00 0.00 0.00 6 1236.6
20260507035459 55 270 2.6 3.5 0.00 0.00 0.00 6 1237.2
20260507034957 56 270 2.6 3.5 0.00 0.00 0.00 6 1236.9
20260507034454 56 270 4.3 6.1 0.00 0.00 0.00 5 1236.2
20260507033951 56 270 4.3 7.8 0.00 0.00 0.00 6 1237.0
20260507033448 56 247 4.3 11.3 0.00 0.00 0.00 5 1235.9
20260507032946 56 270 4.3 7.0 0.00 0.00 0.00 5 1235.5
20260507032443 56 270 3.5 6.1 0.00 0.00 0.00 5 1235.6
20260507031940 56 270 5.2 13.0 0.00 0.00 0.00 6 1236.9
20260507031437 56 247 4.3 7.8 0.00 0.00 0.00 5 1234.9
20260507030935 56 270 3.5 5.2 0.00 0.00 0.00 5 1234.7
20260507030432 56 247 3.5 10.4 0.00 0.00 0.00 5 1234.9
20260507025929 56 270 5.2 12.2 0.00 0.00 0.00 5 1234.8
20260507025426 56 270 5.2 10.4 0.00 0.00 0.00 5 1236.0
20260507024924 56 225 3.5 9.6 0.00 0.00 0.00 5 1234.4
20260507024421 57 45 4.3 12.2 0.00 0.00 0.00 5 1234.6
20260507023918 57 247 3.5 13.0 0.00 0.00 0.00 5 1234.5
20260507023415 57 225 4.3 9.6 0.00 0.00 0.00 5 1235.5
20260507022913 57 67 4.3 9.6 0.00 0.00 0.00 6 1236.4
20260507022410 57 112 3.5 5.2 0.00 0.00 0.00 5 1233.6
20260507021402 57 225 5.2 14.8 0.00 0.00 0.00 5 1234.2
20260507020859 56 225 4.3 9.6 0.00 0.00 0.00 5 1233.7
20260507020356 56 270 5.2 9.6 0.00 0.00 0.00 5 1233.8
20260507015853 57 135 4.3 8.7 0.00 0.00 0.00 5 1233.9
20260507015351 57 270 3.5 7.8 0.00 0.00 0.00 5 1233.8
20260507014848 57 270 4.3 8.7 0.00 0.00 0.00 5 1233.6
20260507014345 57 270 4.3 10.4 0.00 0.00 0.00 5 1233.0
20260507013842 57 90 2.6 5.2 0.00 0.00 0.00 6 1234.4
20260507013339 57 270 2.6 5.2 0.00 0.00 0.00 6 1233.8
20260507012837 57 247 4.3 8.7 0.00 0.00 0.00 5 1232.8
20260507012334 57 270 4.3 7.0 0.00 0.00 0.00 5 1232.9
20260507011831 57 247 3.5 7.0 0.00 0.00 0.00 6 1234.2
20260507011328 57 270 4.3 7.8 0.00 0.00 0.00 6 1234.7
20260507010826 57 270 4.3 9.6 0.00 0.00 0.00 6 1231.9
20260507010323 57 270 4.3 7.8 0.00 0.00 0.00 6 1233.1
20260507005820 58 247 4.3 10.4 0.00 0.00 0.00 6 1232.7
20260507005317 58 247 4.3 8.7 0.00 0.00 0.00 6 1233.0
20260507004814 58 247 4.3 10.4 0.00 0.00 0.00 6 1233.1
20260507004312 58 247 5.2 16.5 0.00 0.00 0.00 6 1232.2
20260507003809 58 270 6.1 14.8 0.00 0.00 0.00 6 1232.6
20260507003306 58 135 3.5 8.7 0.00 0.00 0.00 6 1232.4
20260507002803 58 157 3.5 8.7 0.00 0.00 0.00 6 1231.9
20260507002301 58 270 4.3 11.3 0.00 0.00 0.00 6 1231.6
20260507001758 58 270 3.5 7.8 0.00 0.00 0.00 6 1232.0
20260507001255 58 270 4.3 10.4 0.00 0.00 0.00 6 1231.0
20260507000752 59 247 4.3 10.4 0.00 0.00 0.00 6 1230.7
20260507000250 59 247 4.3 8.7 0.00 0.00 0.00 6 1230.9
20260506235747 59 135 2.6 4.3 0.00 0.00 0.00 6 1230.4
20260506235244 59 135 4.3 10.4 0.00 0.00 0.00 6 1230.7
20260506234741 59 225 5.2 9.6 0.00 0.00 0.00 6 1231.7
20260506234239 59 225 4.3 11.3 0.00 0.00 0.00 6 1230.2
20260506233736 59 270 5.2 13.9 0.00 0.00 0.00 6 1231.5
20260506233233 59 225 6.1 17.4 0.00 0.00 0.00 6 1229.6
20260506232730 59 270 3.5 7.8 0.00 0.00 0.00 6 1229.9
20260506232228 59 225 4.3 13.0 0.00 0.00 0.00 6 1230.2
20260506231725 60 225 4.3 12.2 0.00 0.00 0.00 6 1228.6
20260506231222 60 270 5.2 15.6 0.00 0.00 0.00 6 1228.6
20260506230719 60 270 3.5 10.4 0.00 0.00 0.00 6 1228.8
20260506225711 60 247 7.0 13.9 0.00 0.00 0.00 6 1228.1
20260506225208 60 270 3.5 9.6 0.00 0.00 0.00 6 1228.5
20260506224705 60 225 4.3 12.2 0.00 0.00 0.00 6 1227.4
20260506224203 60 270 3.5 9.6 0.00 0.00 0.00 6 1227.0
20260506223700 60 247 4.3 10.4 0.00 0.00 0.00 6 1228.2
20260506223157 60 270 5.2 12.2 0.00 0.00 0.00 6 1228.4
20260506222654 61 225 4.3 13.0 0.00 0.00 0.00 6 1226.9
20260506221649 61 225 5.2 13.0 0.00 0.00 0.00 6 1226.8
20260506221144 61 45 5.2 15.6 0.00 0.00 0.00 6 1227.4
20260506220641 61 225 4.3 9.6 0.00 0.00 0.00 5 1225.5
20260506220138 62 202 5.2 13.9 0.00 0.00 0.00 5 1224.3
20260506215635 62 225 5.2 18.2 0.00 0.00 0.00 5 1225.7
20260506215132 62 135 5.2 10.4 0.00 0.00 0.00 5 1224.5
20260506214630 62 247 5.2 17.4 0.00 0.00 0.00 5 1225.1
20260506214127 62 247 5.2 8.7 0.00 0.00 0.00 5 1223.7
20260506213624 62 270 5.2 13.0 0.00 0.00 0.00 5 1224.6
20260506213121 63 270 4.3 11.3 0.00 0.00 0.00 5 1221.9
20260506212619 63 270 3.5 8.7 0.00 0.00 0.00 5 1222.8
20260506212116 63 112 2.6 3.5 0.00 0.00 0.00 5 1220.8
20260506211613 64 247 5.2 11.3 0.00 0.00 0.00 5 1220.4
20260506211110 63 247 3.5 7.8 0.00 0.00 0.00 4 1219.8
20260506210608 63 67 0.0 0.0 0.00 0.00 0.00 5 1219.7
20260506210105 63 67 0.0 0.0 0.00 0.00 0.00 4 1219.1
20260506205602 62 67 0.0 0.0 0.00 0.00 0.00 4 1219.0
20260506205059 62 67 0.0 0.0 0.00 0.00 0.00 4 1219.0
20260506204557 62 67 0.0 0.0 0.00 0.00 0.00 4 1219.0
20260506204054 62 67 0.0 0.0 0.00 0.00 0.00 5 1218.8
20260506203551 63 67 0.0 0.0 0.00 0.00 0.00 4 1218.4
20260506202543 63 67 0.0 0.0 0.00 0.00 0.00 5 1218.5
20260506202040 64 67 0.0 0.0 0.00 0.00 0.00 4 1218.2
20260506201537 64 67 0.0 0.0 0.00 0.00 0.00 4 1217.8
20260506201035 65 67 0.0 0.0 0.00 0.00 0.00 4 1217.6
20260506200532 65 67 0.0 0.0 0.00 0.00 0.00 4 1217.9
20260506200029 65 67 0.0 0.0 0.00 0.00 0.00 5 1218.2
20260506195526 65 67 0.0 0.0 0.00 0.00 0.00 5 1218.4
20260506195023 65 67 0.0 0.0 0.00 0.00 0.00 4 1217.6
20260506194521 66 67 0.0 0.0 0.00 0.00 0.00 5 1218.3
20260506193513 66 67 0.0 2.6 0.00 0.00 0.00 4 1216.7
20260506193010 66 67 2.6 4.3 0.00 0.00 0.00 5 1217.0
20260506192507 66 67 2.6 5.2 0.00 0.00 0.00 4 1215.5
20260506192004 66 67 2.6 4.3 0.00 0.00 0.00 4 1216.2
20260506191501 67 67 0.0 0.0 0.00 0.00 0.00 4 1215.9
20260506185948 68 67 3.5 6.1 0.00 0.00 0.00 4 1215.3
20260506185445 68 67 3.5 7.0 0.00 0.00 0.00 4 1213.4
20260506184942 68 67 4.3 7.8 0.00 0.00 0.00 4 1214.6
20260506184439 68 67 4.3 7.0 0.00 0.00 0.00 4 1215.7
20260506183431 68 67 4.3 7.8 0.00 0.00 0.00 4 1214.4
20260506182928 68 67 4.3 7.0 0.00 0.00 0.00 4 1213.9
20260506181920 69 67 5.2 10.4 0.00 0.00 0.00 4 1213.1
20260506181417 69 67 5.2 8.7 0.00 0.00 0.00 4 1212.6
20260506180915 69 67 4.3 7.0 0.00 0.00 0.00 4 1213.5
20260506175906 70 67 3.5 5.2 0.00 0.00 0.00 4 1211.3
20260506175403 70 67 4.3 7.0 0.00 0.00 0.00 4 1212.2
20260506174901 70 67 4.3 7.0 0.00 0.00 0.00 4 1211.2
20260506174358 70 67 5.2 7.8 0.00 0.00 0.00 4 1210.8
20260506173855 70 67 5.2 7.0 0.00 0.00 0.00 4 1212.0
20260506173352 71 67 4.3 7.8 0.00 0.00 0.00 4 1212.1
20260506172850 71 67 4.3 8.7 0.00 0.00 0.00 4 1211.6
20260506172347 71 67 5.2 11.3 0.00 0.00 0.00 4 1211.2
20260506171844 71 67 4.3 7.0 0.00 0.00 0.00 4 1212.7
20260506171341 71 67 4.3 7.8 0.00 0.00 0.00 4 1212.1
20260506170839 71 67 5.2 7.8 0.00 0.00 0.00 4 1212.3
20260506170336 72 67 5.2 8.7 0.00 0.00 0.00 4 1210.8
20260506165833 72 67 6.1 12.2 0.00 0.00 0.00 4 1211.8
20260506165330 72 90 4.3 7.8 0.00 0.00 0.00 4 1209.6
20260506164827 72 90 5.2 8.7 0.00 0.00 0.00 4 1211.9
20260506164325 73 90 6.1 11.3 0.00 0.00 0.00 4 1210.2
20260506163822 73 90 6.1 14.8 0.00 0.00 0.00 4 1209.4
20260506163319 73 90 7.0 12.2 0.00 0.00 0.00 4 1210.0
20260506162816 73 90 6.1 12.2 0.00 0.00 0.00 4 1209.2
20260506161808 73 90 7.8 14.8 0.00 0.00 0.00 4 1209.5
20260506161305 73 90 7.8 12.2 0.00 0.00 0.00 4 1209.2
20260506160802 74 90 4.3 9.6 0.00 0.00 0.00 4 1207.6
20260506160300 74 90 8.7 13.0 0.00 0.00 0.00 4 1209.5
20260506155757 74 90 7.8 15.6 0.00 0.00 0.00 4 1208.1
20260506155254 75 90 8.7 18.2 0.00 0.00 0.00 4 1207.6
20260506154751 77 135 5.2 7.8 0.00 0.00 0.00 3 1204.7
20260506154249 78 135 0.0 0.0 0.00 0.00 0.00 2 1200.7
20260506153746 78 135 2.6 4.3 0.00 0.00 0.00 3 1202.0
20260506153243 79 135 0.0 0.0 0.00 0.00 0.00 3 1200.8
20260506152740 78 135 3.5 3.5 0.00 0.00 0.00 3 1200.6
20260506152237 78 135 3.5 5.2 0.00 0.00 0.00 2 1199.0
20260506151735 78 135 2.6 3.5 0.00 0.00 0.00 2 1199.1
20260506151232 78 135 2.6 3.5 0.00 0.00 0.00 2 1198.3
20260506150729 78 247 3.5 3.5 0.00 0.00 0.00 2 1199.0
20260506150226 78 247 2.6 6.1 0.00 0.00 0.00 2 1198.1
20260506145723 79 135 2.6 5.2 0.00 0.00 0.00 2 1198.6
20260506145221 79 225 3.5 10.4 0.00 0.00 0.00 2 1199.2
20260506144718 79 90 3.5 6.1 0.00 0.00 0.00 2 1199.1
20260506144215 80 90 2.6 3.5 0.00 0.00 0.00 2 1197.0
20260506143712 80 90 4.3 7.0 0.00 0.00 0.00 2 1197.6
20260506143210 79 90 2.6 4.3 0.00 0.00 0.00 2 1200.3
20260506142707 79 90 2.6 5.2 0.00 0.00 0.00 3 1202.4
20260506142204 79 90 2.6 4.3 0.00 0.00 0.00 2 1202.3
20260506141701 78 90 3.5 7.8 0.00 0.00 0.00 3 1204.7
20260506141159 78 90 7.0 13.9 0.00 0.00 0.00 3 1206.6
20260506140150 78 90 8.7 20.0 0.00 0.00 0.00 3 1205.8
20260506135648 77 90 9.6 15.6 0.00 0.00 0.00 3 1205.9
20260506135145 78 90 9.6 17.4 0.00 0.00 0.00 3 1206.3
20260506134642 78 67 7.8 13.9 0.00 0.00 0.00 3 1207.0
20260506134139 78 67 7.0 13.9 0.00 0.00 0.00 3 1204.6
20260506133637 78 67 6.1 13.9 0.00 0.00 0.00 3 1205.1
20260506133134 78 67 7.0 12.2 0.00 0.00 0.00 3 1205.0
20260506132631 78 67 10.4 18.2 0.00 0.00 0.00 3 1207.9
20260506132128 78 90 8.7 14.8 0.00 0.00 0.00 3 1207.1
20260506131626 78 90 9.6 15.6 0.00 0.00 0.00 3 1206.8
20260506131123 79 90 7.0 13.9 0.00 0.00 0.00 3 1206.1
20260506130620 78 90 9.6 19.1 0.00 0.00 0.00 3 1206.4
20260506130117 78 67 8.7 16.5 0.00 0.00 0.00 3 1207.2
20260506125615 77 90 9.6 22.6 0.00 0.00 0.00 3 1208.3
20260506125112 78 67 6.1 11.3 0.00 0.00 0.00 3 1207.7
20260506124609 76 67 7.0 11.3 0.00 0.00 0.00 4 1209.7
20260506124106 75 90 7.8 13.9 0.00 0.00 0.00 4 1210.4
20260506123603 75 67 10.4 22.6 0.00 0.00 0.00 4 1211.9
20260506123101 75 67 9.6 20.0 0.00 0.00 0.00 4 1211.8
20260506122558 75 90 9.6 14.8 0.00 0.00 0.00 4 1210.8
20260506122055 75 67 8.7 16.5 0.00 0.00 0.00 4 1211.9
20260506121552 74 90 9.6 16.5 0.00 0.00 0.00 4 1212.2
20260506121050 74 90 10.4 22.6 0.00 0.00 0.00 4 1213.3
20260506120547 74 67 8.7 14.8 0.00 0.00 0.00 4 1213.0
20260506120044 74 67 9.6 20.0 0.00 0.00 0.00 4 1214.2
20260506115541 74 90 10.4 22.6 0.00 0.00 0.00 4 1214.0
20260506115038 74 90 10.4 22.6 0.00 0.00 0.00 4 1212.5
20260506114536 75 90 7.0 13.0 0.00 0.00 0.00 4 1210.5
20260506114033 75 90 8.7 18.2 0.00 0.00 0.00 4 1211.6
20260506113530 76 90 8.7 15.6 0.00 0.00 0.00 3 1209.8
20260506113028 76 67 9.6 16.5 0.00 0.00 0.00 4 1211.9
20260506112525 76 67 9.6 16.5 0.00 0.00 0.00 4 1211.6
20260506112022 77 67 7.0 12.2 0.00 0.00 0.00 4 1211.1
20260506111519 75 67 9.6 17.4 0.00 0.00 0.00 4 1213.1
20260506111016 74 90 11.3 23.5 0.00 0.00 0.00 4 1214.2
20260506110514 76 67 8.7 16.5 0.00 0.00 0.00 4 1212.9
20260506110011 74 67 9.6 17.4 0.00 0.00 0.00 4 1214.0
20260506105508 74 90 10.4 20.9 0.00 0.00 0.00 4 1214.5
20260506104500 75 90 10.4 18.2 0.00 0.00 0.00 4 1213.1
20260506103957 75 90 9.6 17.4 0.00 0.00 0.00 4 1212.1
20260506103454 74 90 11.3 21.7 0.00 0.00 0.00 4 1216.0
20260506102951 74 90 10.4 20.9 0.00 0.00 0.00 4 1213.6
20260506102449 75 90 9.6 20.0 0.00 0.00 0.00 4 1212.8
20260506101946 75 90 11.3 20.0 0.00 0.00 0.00 4 1214.3
20260506101443 76 90 8.7 18.2 0.00 0.00 0.00 4 1212.9
20260506100940 74 90 9.6 20.9 0.00 0.00 0.00 4 1212.9
20260506100437 74 90 9.6 17.4 0.00 0.00 0.00 4 1213.3
20260506095935 76 90 9.6 19.1 0.00 0.00 0.00 4 1211.9
20260506095432 75 90 8.7 20.0 0.00 0.00 0.00 4 1214.7
20260506094929 74 90 12.2 20.0 0.00 0.00 0.00 4 1215.2
20260506094426 74 90 9.6 18.2 0.00 0.00 0.00 4 1215.1
20260506093418 75 67 7.8 15.6 0.00 0.00 0.00 4 1213.4
20260506092915 75 90 8.7 13.9 0.00 0.00 0.00 4 1214.6
20260506092413 75 90 7.0 12.2 0.00 0.00 0.00 4 1212.6
20260506091910 76 90 6.1 9.6 0.00 0.00 0.00 4 1214.2
20260506091407 72 90 8.7 14.8 0.00 0.00 0.00 4 1216.2
20260506090904 74 67 7.0 11.3 0.00 0.00 0.00 4 1214.6
20260506090401 73 67 6.1 10.4 0.00 0.00 0.00 4 1215.1
20260506085859 73 67 5.2 8.7 0.00 0.00 0.00 4 1214.3
20260506085356 73 67 7.8 13.9 0.00 0.00 0.00 4 1216.6
20260506084853 75 90 6.1 11.3 0.00 0.00 0.00 3 1212.6
20260506084350 73 112 3.5 8.7 0.00 0.00 0.00 4 1212.6
20260506083848 73 112 5.2 11.3 0.00 0.00 0.00 4 1214.4
20260506083345 74 135 4.3 6.1 0.00 0.00 0.00 4 1212.5
20260506082844 74 135 3.5 8.7 0.00 0.00 0.00 4 1212.3
20260506082339 72 135 2.6 4.3 0.00 0.00 0.00 4 1217.2
20260506081837 72 135 2.6 4.3 0.00 0.00 0.00 4 1214.4
20260506081334 70 135 2.6 3.5 0.00 0.00 0.00 4 1218.2
20260506080326 70 135 0.0 0.0 0.00 0.00 0.00 4 1215.5
20260506073306 71 135 2.6 6.1 0.00 0.00 0.00 4 1214.3
20260506072258 70 135 2.6 2.6 0.00 0.00 0.00 4 1216.0
20260506071755 69 135 3.5 5.2 0.00 0.00 0.00 4 1216.2
20260506071253 70 135 0.0 0.0 0.00 0.00 0.00 4 1212.8
20260506070750 72 135 0.0 0.0 0.00 0.00 0.00 4 1211.6
20260506070247 71 135 0.0 0.0 0.00 0.00 0.00 4 1217.4
20260506062222 68 135 0.0 2.6 0.00 0.00 0.00 4 1218.9
20260506061720 68 135 2.6 4.3 0.00 0.00 0.00 4 1215.5
20260506061217 68 135 2.6 0.0 0.00 0.00 0.00 4 1213.9